Weather History for Randolph AFB, TX

Change the Weather History Date:

Monday, November 5, 2012

  Actual Average Record
Temperature  
Mean Temperature 71 °F -  
Max Temperature 85 °F 71 °F 86 °F (2005)
Min Temperature 57 °F 52 °F 37 °F (2010)
Cooling Degree Days 6    
Growing Degree Days 21 (Base 50)    
Moisture  
Dew Point 60 °F    
Average Humidity 70    
Maximum Humidity 99    
Minimum Humidity 45    
Precipitation  
Precipitation 0.00 in - - ()
Sea Level Pressure  
Sea Level Pressure 30.02 in    
Wind  
Wind Speed 5 mph (NW)    
Max Wind Speed 12 mph    
Max Gust Speed -    
Visibility 10 miles    
Events      
Averages and records for this station are not official NWS values.
T = Trace of Precipitation, MM = Missing Value Source: NWS Daily Summary

Daily Weather History Graph

Daily Weather History Graph

Search for Another Location

Airport:

Trip Planner

Search our weather history database for the weather conditions in past years. The results will help you decide how hot, cold, wet, or windy it might be!

Date:

Astronomy

Nov. 05, 2012 Rise Set
Actual Time 6:49 AM CST 5:43 PM CST
Civil Twilight 6:25 AM CST 6:08 PM CST
Nautical Twilight 5:56 AM CST 6:36 PM CST
Astronomical Twilight 5:28 AM CST 7:04 PM CST
Moon 11:21 PM CST (11/5) 12:09 PM CST (11/5)
Length of Visible Light 11h 43m
Length of Day
10h 53m
Waning Gibbous, 62% of the Moon is Illuminated
Nov 5
Waning Gibbous
Nov 6
Last Quarter
Nov 13
New
Nov 20
First Quarter
Nov 28
Full

Hourly Weather History & Observations

Time (CST) Temp. Heat Index Dew Point Humidity Pressure Visibility Wind Dir Wind Speed Gust Speed Precip Events Conditions
12:55 AM 59.7 °F - 57.7 °F 93% 30.06 in 10.0 mi NNW 3.5 mph - N/A   Clear
1:55 AM 57.6 °F - 56.8 °F 97% 30.06 in 10.0 mi NNW 4.6 mph - N/A   Clear
2:55 AM 58.3 °F - 57.0 °F 96% 30.04 in 10.0 mi NNW 4.6 mph - N/A   Clear
3:55 AM 57.6 °F - 57.2 °F 99% 30.04 in 10.0 mi NW 4.6 mph - N/A   Clear
4:55 AM 57.6 °F - 57.2 °F 99% 30.04 in 10.0 mi NW 3.5 mph - N/A   Clear
5:55 AM 58.1 °F - 57.9 °F 99% 30.04 in 10.0 mi Calm Calm - N/A   Clear
6:55 AM 57.0 °F - 56.8 °F 99% 30.05 in 7.0 mi NW 4.6 mph - N/A   Clear
7:55 AM 61.2 °F - 59.9 °F 96% 30.05 in 10.0 mi Calm Calm - N/A   Clear
8:55 AM 71.2 °F - 65.5 °F 82% 30.06 in 10.0 mi Calm Calm - N/A   Clear
9:55 AM 76.5 °F - 63.5 °F 64% 30.06 in 10.0 mi West 5.8 mph - N/A   Clear
10:55 AM 79.7 °F - 64.2 °F 59% 30.06 in 10.0 mi West 8.1 mph - N/A   Clear
11:55 AM 81.7 °F 83.2 °F 64.2 °F 55% 30.03 in 10.0 mi SW 10.4 mph - N/A   Clear
12:55 PM 83.3 °F 84.3 °F 62.8 °F 50% 30.00 in 10.0 mi West 9.2 mph - N/A   Clear
1:55 PM 83.8 °F 85.1 °F 63.7 °F 51% 29.96 in 10.0 mi WSW 6.9 mph - N/A   Clear
2:55 PM 84.9 °F 85.2 °F 61.7 °F 45% 29.94 in 10.0 mi Variable 4.6 mph - N/A   Clear
3:55 PM 85.1 °F 85.4 °F 61.7 °F 45% 29.93 in 10.0 mi SW 5.8 mph - N/A   Clear
4:09 PM 82.4 °F 82.9 °F 60.8 °F 48% 29.94 in 10.0 mi SW 4.6 mph - N/A   Light Drizzle
4:38 PM 84.2 °F 84.4 °F 60.8 °F 45% 29.94 in 10.0 mi South 3.5 mph - N/A   Light Drizzle
4:55 PM 83.1 °F 83.7 °F 61.7 °F 48% 29.94 in 10.0 mi SSW 5.8 mph - N/A   Clear
5:55 PM 77.4 °F - 64.4 °F 64% 29.96 in 10.0 mi ENE 5.8 mph - 0.00 in   Partly Cloudy
6:55 PM 75.0 °F - 65.1 °F 71% 29.99 in 10.0 mi NNE 6.9 mph - N/A   Scattered Clouds
7:55 PM 71.2 °F - 65.8 °F 83% 30.00 in 10.0 mi NE 5.8 mph - N/A   Scattered Clouds
8:55 PM 72.1 °F - 57.9 °F 61% 30.02 in 10.0 mi NE 11.5 mph - N/A   Partly Cloudy
9:55 PM 70.9 °F - 52.9 °F 53% 30.05 in 10.0 mi NE 11.5 mph - N/A   Partly Cloudy
10:55 PM 67.8 °F - 51.1 °F 55% 30.06 in 10.0 mi NNE 10.4 mph - N/A   Clear
11:55 PM 66.0 °F - 48.9 °F 54% 30.07 in 10.0 mi NE 9.2 mph - N/A   Clear